User: anonymous
Location: Caltech
(34.1382°N, 118.1253°W)
Time: 20:56:42
(UTC-07:00)
Language:

Cosmos 1975 - Orbit

View from above orbital plane
View from above orbital plane
View from above satellite
View from above satellite

Ground track
Ground track

The orbit data is extracted from the following two-line orbital elements,

1 19573U 88093A   14114.80769564  .00003186  00000-0  25252-3 0  1729
2 19573 082.5264 014.9756 0014477 241.0172 118.9602 15.00178371387194
Epoch (UTC): 24 April 2014 19:23:04
Eccentricity: 0.0014477
inclination: 82.5264°
perigee height: 556 km
apogee height: 576 km
right ascension of ascending node: 14.9756°
argument of perigee: 241.0172°
revolutions per day: 15.00178371
mean anomaly at epoch: 118.9602°
orbit number at epoch: 38719

The dashed part of the orbit path shows where the satellite is in the earth's shadow,  

DLR